This is the latest recevied weather packets stored in our database for station/object N7DQ. If no packets are shown the sender has not sent any weather packets the latest 10 day(s).
| Time | Temp. | Humidity | Pressure | Rain* | Wind** | Luminosity | Snow |
|---|---|---|---|---|---|---|---|
| 1777770305 | 25° C | 55% | 1011.6 hPa | 0 mm | - | 346 W/m² | - |
| 1777770005 | 24.44° C | 55% | 1011.6 hPa | 0 mm | - | 355 W/m² | - |
| 1777769705 | 25° C | 56% | 1011.6 hPa | 0 mm | - | 357 W/m² | - |
| 1777765505 | 23.33° C | 64% | 1011.8 hPa | 0 mm | - | 564 W/m² | - |
| 1777765206 | 22.22° C | 67% | 1011.9 hPa | 0 mm | - | 577 W/m² | - |
| 1777764905 | 21.67° C | 68% | 1012 hPa | 0 mm | - | 564 W/m² | - |
| 1777764605 | 22.22° C | 69% | 1012 hPa | 0 mm | - | 315 W/m² | - |
| 1777764305 | 21.67° C | 68% | 1012.3 hPa | 0 mm | - | 241 W/m² | - |
| 1777764006 | 21.67° C | 70% | 1012.4 hPa | 0 mm | - | 301 W/m² | - |
| 1777763705 | 21.11° C | 71% | 1012.4 hPa | 0 mm | - | 466 W/m² | - |
| 1777763405 | 20.56° C | 72% | 1012.4 hPa | 0 mm | - | 504 W/m² | - |
| 1777763106 | 20.56° C | 73% | 1012.6 hPa | 0 mm | - | 396 W/m² | - |
| 1777762805 | 20.56° C | 70% | 1012.8 hPa | 0 mm | - | 343 W/m² | - |
| 1777762505 | 20.56° C | 70% | 1013 hPa | 0 mm | - | 309 W/m² | - |
| 1777762205 | 21.11° C | 68% | 1012.9 hPa | 0 mm | - | 265 W/m² | - |
| 1777761908 | 21.67° C | 66% | 1013 hPa | 0 mm | - | 260 W/m² | - |
| 1777761605 | 21.67° C | 66% | 1013 hPa | 0 mm | - | 279 W/m² | - |
| 1777761305 | 21.67° C | 64% | 1013.1 hPa | 0 mm | - | 309 W/m² | - |
| 1777761005 | 21.67° C | 65% | 1013.2 hPa | 0 mm | - | 313 W/m² | - |
| 1777760705 | 21.67° C | 65% | 1013.3 hPa | 0 mm | - | 499 W/m² | - |
| 1777760405 | 21.11° C | 68% | 1013.4 hPa | 0 mm | - | 540 W/m² | - |
| 1777760105 | 20.56° C | 69% | 1013.4 hPa | 0 mm | - | 624 W/m² | - |
| 1777759805 | 20° C | 70% | 1013.5 hPa | 0 mm | - | 545 W/m² | - |
| 1777759505 | 19.44° C | 70% | 1013.7 hPa | 0 mm | - | 452 W/m² | - |
| 1777759205 | 19.44° C | 70% | 1013.7 hPa | 0 mm | - | 420 W/m² | - |
* Rain latest hour (hover to see other rain measurements)
** Current wind speed in m/s (hover to see current wind gust speed)